Back to catalog

STARLINK-30715

AliveCommunicationsVLEO
NORAD 57941·PAYLOAD·🇺🇸 United States

Launched Sep 25, 2023 from Vandenberg Space Force Base

Loading…

Next Passes (next 24 hours)

TLE

FreshSource: CelesTrak SupGP

Epoch: Sep 14, 2026, 14:47 UTC

1 57941C 23148G   26257.61645833  .00000333  00000+0  98429-5 0  2574
2 57941  53.1588 214.8623 0001406  97.4882 283.5573 15.34379397    18

Track STARLINK-30715 in real time with AllMySat

Download on the App Store